Richmond Hanover County, VA

3:01 PM EDT on May 28, 2017 (GMT -0400)
Hanover County Municipal

Weather History for KOFP - May, 2013

Change the Weather History Date:

Sunday, May 5, 2013

  Actual Average Record
Temperature  
Mean Temperature 50 °F -  
Max Temperature 63 °F 73 °F 89 °F (1965)
Min Temperature 39 °F 47 °F 33 °F (1966)
Degree Days  
Heating Degree Days 14    
Moisture  
Dew Point 44 °F    
Average Humidity 77    
Maximum Humidity 100    
Minimum Humidity 58    
Precipitation  
Precipitation 0.00 in - - ()
Sea Level Pressure  
Sea Level Pressure 30.17 in    
Wind  
Wind Speed 3 mph (NE)    
Max Wind Speed 10 mph    
Max Gust Speed 16 mph    
Visibility 10 miles    
Events      
Averages and records for this station are not official NWS values.
T = Trace of Precipitation, MM = Missing Value Source: NWS Daily Summary

Daily Weather History Graph

Daily Weather History Graph

Search for Another Location

Airport or City:

Trip Planner

Search our weather history database for the weather conditions in past years. The results will help you decide how hot, cold, wet, or windy it might be!

Date:

Astronomy

May. 05, 2013 Rise Set
Actual Time 6:09 AM EDT 8:03 PM EDT
Civil Twilight 5:40 AM EDT 8:32 PM EDT
Nautical Twilight 5:06 AM EDT 9:07 PM EDT
Astronomical Twilight 4:29 AM EDT 9:44 PM EDT
Moon 3:34 AM EDT (5/5) 4:05 PM EDT (5/5)
Length of Visible Light 14h 51m
Length of Day
13h 54m
Waning Crescent, 18% of the Moon is Illuminated
May 5
Waning Crescent
May 9
New
May 18
First Quarter
May 25
Full
May 31
Last Quarter

Hourly Weather History & Observations

Time (EDT) Temp. Windchill Dew Point Humidity Pressure Visibility Wind Dir Wind Speed Gust Speed Precip Events Conditions
12:54 AM 44.1 °F - 39.9 °F 85% 30.20 in 10.0 mi Calm Calm - N/A   Clear
1:54 AM 43.0 °F - 39.9 °F 89% 30.19 in 10.0 mi Calm Calm - N/A   Clear
2:54 AM 42.1 °F - 37.9 °F 85% 30.18 in 10.0 mi Calm Calm - N/A   Clear
3:33 AM 39.2 °F - 39.2 °F 100% 30.18 in 10.0 mi Calm Calm - N/A   Mostly Cloudy
3:54 AM 41.0 °F - 39.0 °F 93% 30.18 in 10.0 mi Calm Calm - N/A   Overcast
4:10 AM 42.8 °F 40.1 °F 39.2 °F 87% 30.17 in 10.0 mi North 4.6 mph - N/A   Overcast
4:26 AM 42.8 °F - 39.2 °F 87% 30.17 in 10.0 mi Calm Calm - N/A   Scattered Clouds
4:54 AM 43.0 °F 41.3 °F 41.0 °F 93% 30.17 in 10.0 mi Variable 3.5 mph - N/A   Mostly Cloudy
5:54 AM 46.0 °F 44.8 °F 43.0 °F 89% 30.18 in 9.0 mi Variable 3.5 mph - N/A   Overcast
6:54 AM 46.9 °F - 43.0 °F 86% 30.19 in 8.0 mi Variable 4.6 mph - N/A   Overcast
7:54 AM 48.0 °F - 44.1 °F 86% 30.19 in 8.0 mi Variable 5.8 mph - N/A   Overcast
8:54 AM 52.0 °F - 44.1 °F 74% 30.20 in 10.0 mi Variable 4.6 mph - N/A   Overcast
9:54 AM 53.1 °F - 44.1 °F 71% 30.21 in 10.0 mi Variable 4.6 mph - N/A   Overcast
10:54 AM 55.0 °F - 45.0 °F 69% 30.21 in 10.0 mi NE 8.1 mph 16.1 mph N/A   Overcast
11:54 AM 57.0 °F - 45.0 °F 64% 30.20 in 10.0 mi ENE 8.1 mph - N/A   Overcast
12:27 PM 57.2 °F - 44.6 °F 63% 30.19 in 10.0 mi Variable 5.8 mph - N/A   Overcast
12:54 PM 59.0 °F - 46.0 °F 62% 30.20 in 10.0 mi East 6.9 mph - N/A   Overcast
2:54 PM 61.0 °F - 46.0 °F 58% 30.16 in 10.0 mi NE 8.1 mph - N/A   Overcast
3:54 PM 62.1 °F - 46.9 °F 58% 30.15 in 10.0 mi Variable 6.9 mph - N/A   Overcast
4:54 PM 62.1 °F - 48.0 °F 60% 30.14 in 10.0 mi NE 9.2 mph - N/A   Overcast
5:54 PM 61.0 °F - 48.0 °F 62% 30.14 in 10.0 mi ENE 5.8 mph - N/A   Overcast
6:54 PM 60.1 °F - 48.0 °F 64% 30.13 in 10.0 mi ENE 10.4 mph - N/A   Overcast
8:11 PM 59.0 °F - 48.2 °F 67% 30.14 in 10.0 mi NE 5.8 mph - N/A   Overcast
8:54 PM 57.9 °F - 48.9 °F 72% 30.14 in 10.0 mi ENE 4.6 mph - N/A   Overcast
9:54 PM 57.0 °F - 50.0 °F 77% 30.16 in 10.0 mi ENE 4.6 mph - N/A   Overcast
10:54 PM 55.9 °F - 50.0 °F 80% 30.16 in 10.0 mi NE 4.6 mph - N/A   Overcast
11:54 PM 54.0 °F - 50.0 °F 86% 30.15 in 10.0 mi ENE 5.8 mph - N/A   Overcast